Date,TemperatureHighF,TemperatureAvgF,TemperatureLowF,DewpointHighF,DewpointAvgF,DewpointLowF,HumidityHigh,HumidityAvg,HumidityLow,PressureMaxIn,PressureMinIn,WindSpeedMaxMPH,WindSpeedAvgMPH,GustSpeedMaxMPH,PrecipitationSumIn
2013-5-1,59,47,36,51,42,35,99,81,65,30.21,29.73,30,14,30,0.78
2013-5-2,41,37,33,37,33,28,99,87,66,30.34,30.17,30,12,30,1.74
2013-5-3,40,37,34,36,33,30,94,84,73,30.22,29.85,26,10,26,0.01
2013-5-4,51,41,34,47,40,33,99,95,84,29.97,29.78,22,10,22,0.14
2013-5-5,55,49,42,52,47,42,99,95,86,30.01,29.94,14,6,14,0.01
2013-5-6,75,59,49,58,52,48,99,79,46,30.01,29.91,12,5,12,0.00
2013-5-7,80,65,46,58,49,39,99,63,25,29.97,29.85,13,2,13,0.00
2013-5-8,74,63,56,62,56,48,99,78,58,29.90,29.78,10,3,10,0.07
2013-5-9,73,62,57,62,58,54,99,88,64,29.85,29.73,17,5,17,0.34
2013-5-10,73,59,49,54,49,42,99,73,38,29.95,29.83,17,7,17,0.00
2013-5-11,63,55,45,47,31,15,82,43,19,30.12,29.89,30,9,30,0.00
2013-5-12,69,53,33,33,23,7,79,36,10,30.16,30.01,11,3,11,0.00
2013-5-13,83,65,45,54,40,28,68,43,20,30.02,29.76,18,5,18,0.00
2013-5-14,100,80,57,62,51,32,95,47,10,29.76,29.54,24,7,24,0.00
2013-5-15,85,74,61,54,46,32,61,38,16,29.81,29.67,21,6,21,0.00
2013-5-16,89,74,62,70,61,48,98,66,38,29.79,29.65,18,3,18,0.00
2013-5-17,89,73,62,66,62,58,99,70,39,29.82,29.72,12,4,12,0.00
2013-5-18,88,75,60,67,64,60,99,69,45,29.82,29.61,15,5,15,0.00
2013-5-19,88,70,59,69,62,57,99,81,37,29.69,29.39,28,5,28,1.54
2013-5-20,77,67,58,63,59,53,99,77,48,29.59,29.44,18,6,18,0.01
2013-5-21,70,63,57,58,52,46,93,70,46,29.62,29.51,21,8,21,0.00
2013-5-22,62,56,52,55,52,50,99,88,70,29.84,29.60,14,5,14,0.00
2013-5-23,77,61,52,55,50,42,99,70,31,30.13,29.83,17,5,17,0.00
2013-5-24,76,64,50,55,48,44,84,59,37,30.21,29.97,15,5,15,0.00
2013-5-25,80,66,56,67,58,46,99,77,56,30.08,29.89,16,6,16,0.22
2013-5-26,87,68,59,71,64,59,99,88,57,29.95,29.77,22,6,22,0.01
2013-5-27,79,67,59,67,63,59,99,88,59,29.84,29.57,18,4,18,1.69
2013-5-28,86,71,63,72,66,62,99,87,57,29.65,29.47,24,2,24,0.18
2013-5-29,79,70,63,72,66,61,99,88,74,29.69,29.52,23,3,23,0.67
2013-5-30,76,67,58,67,63,57,99,88,65,29.59,29.47,24,4,24,0.24
2013-5-31,81,70,58,66,60,50,99,73,37,29.63,29.52,14,3,14,0.01